sat.trackr.live / text

‹ back to catalog

STARLINK-3250

NORAD 49749 · 2021-115AB

PAYLOAD ACTIVE UNKNOWN

§ Identity

Operator
Country
US
Launch date
2021-12-02
Launch site
AFETR
Launch vehicle
Mass (kg)
RCS (m²)

Purposes: comms

External: N2YO · Heavens-Above · Gunter

§ Orbital elements

Epoch: 2026-09-12T18:02:34.963584Z

Period
94.02 min
Inclination
53.1615°
Eccentricity
0.0000701
Mean motion
15.31576612 rev/d
Perigee alt
470.6 km
Apogee alt
471.6 km
Semi-major
6,849.2 km
B*
8.6702e-4
RAAN
15.9395°
Arg perigee
188.5390°
Mean anomaly
171.5600°
Rev number
26,395

§ Raw data

STARLINK-32501 49749U 21115AB  26255.75179356  .00026532  00000+0  86702-3 0  99992 49749  53.1615  15.9395 0000701 188.5390 171.5600 15.31576612263952

JSON: /api/v1/satellites/49749 · /tle

For live sub-satellite position, see the globe view (requires WebGL).

§ Visibility from observer

Set your observer location to see the next 7 days of passes ≥ 10°. The values pass through the URL so the page stays shareable.

No JS? Fill the form by hand. The geolocation button needs JavaScript.